Lancaster, PA

10:10 AM EDT on April 21, 2018 (GMT -0400)
Lancaster

Weather History for KLNS - December, 2005

Change the Weather History Date:

Friday, December 30, 2005

  Actual Average Record
Temperature  
Mean Temperature 37 °F -  
Max Temperature 44 °F 38 °F 73 °F (1984)
Min Temperature 30 °F 24 °F 5 °F (1976)
Degree Days  
Heating Degree Days 28    
Moisture  
Dew Point 31 °F    
Average Humidity 70    
Maximum Humidity 85    
Minimum Humidity 60    
Precipitation  
Precipitation 0.00 in - - ()
Sea Level Pressure  
Sea Level Pressure 29.80 in    
Wind  
Wind Speed 12 mph (WNW)    
Max Wind Speed 15 mph    
Max Gust Speed 24 mph    
Visibility 10 miles    
Events      
Averages and records for this station are not official NWS values.
T = Trace of Precipitation, MM = Missing Value Source: NWS Daily Summary

Daily Weather History Graph

Daily Weather History Graph

Search for Another Location

Airport or City:

Astronomy

Dec. 30, 2005 Rise Set
Actual Time 7:27 AM EST 4:48 PM EST
Civil Twilight 6:56 AM EST 5:19 PM EST
Nautical Twilight 6:22 AM EST 5:53 PM EST
Astronomical Twilight 5:49 AM EST 6:26 PM EST
Moon 7:20 AM EST (12/30) 4:04 PM EST (12/30)
Length of Visible Light 10h 22m
Length of Day
9h 21m
Waning Crescent, 0% of the Moon is Illuminated
Dec 30
Waning Crescent
Dec 30
New
Jan 6
First Quarter
Jan 14
Full
Jan 22
Last Quarter

Hourly Weather History & Observations

Time (EST) Temp. Windchill Dew Point Humidity Pressure Visibility Wind Dir Wind Speed Gust Speed Precip Events Conditions
12:53 AM 44.1 °F 37.7 °F 37.0 °F 76% 29.58 in 10.0 mi WNW 12.7 mph 21.9 mph N/A   Overcast
1:53 AM 44.1 °F 37.1 °F 37.0 °F 76% 29.60 in 10.0 mi NW 15.0 mph 23.0 mph N/A   Overcast
2:53 AM 44.1 °F 37.1 °F 36.0 °F 73% 29.61 in 10.0 mi NW 15.0 mph 21.9 mph N/A   Overcast
3:53 AM 43.0 °F 35.7 °F 35.1 °F 74% 29.65 in 10.0 mi NW 15.0 mph - N/A   Overcast
4:53 AM 42.1 °F 34.9 °F 34.0 °F 73% 29.69 in 10.0 mi WNW 13.8 mph - N/A   Overcast
5:53 AM 41.0 °F 33.1 °F 33.1 °F 73% 29.73 in 10.0 mi West 15.0 mph - N/A   Overcast
6:53 AM 41.0 °F 33.1 °F 33.1 °F 73% 29.75 in 10.0 mi NW 15.0 mph - N/A   Overcast
7:53 AM 41.0 °F 33.9 °F 32.0 °F 70% 29.79 in 10.0 mi NW 12.7 mph - N/A   Overcast
8:53 AM 41.0 °F 33.5 °F 32.0 °F 70% 29.81 in 10.0 mi NW 13.8 mph - N/A   Overcast
9:53 AM 42.1 °F 35.2 °F 32.0 °F 67% 29.84 in 10.0 mi WNW 12.7 mph - N/A   Overcast
10:53 AM 42.1 °F 34.9 °F 32.0 °F 67% 29.84 in 10.0 mi WNW 13.8 mph - N/A   Overcast
11:53 AM 43.0 °F 35.7 °F 32.0 °F 65% 29.83 in 10.0 mi WNW 15.0 mph 20.7 mph N/A   Overcast
12:42 PM 42.8 °F 37.0 °F 30.2 °F 61% 29.82 in 10.0 mi NW 10.4 mph - N/A   Overcast
12:53 PM 43.0 °F 36.8 °F 30.9 °F 62% 29.83 in 10.0 mi WNW 11.5 mph - N/A   Overcast
1:53 PM 43.0 °F 36.0 °F 30.0 °F 60% 29.83 in 10.0 mi NW 13.8 mph 24.2 mph N/A   Overcast
2:53 PM 42.1 °F 35.7 °F 28.9 °F 60% 29.85 in 10.0 mi NW 11.5 mph - N/A   Overcast
3:53 PM 41.0 °F 34.3 °F 28.9 °F 62% 29.87 in 10.0 mi WNW 11.5 mph - N/A   Overcast
4:53 PM 39.9 °F 33.4 °F 28.9 °F 65% 29.87 in 10.0 mi NW 10.4 mph - N/A   Overcast
5:53 PM 39.0 °F 32.3 °F 28.0 °F 65% 29.88 in 10.0 mi NNW 10.4 mph - N/A   Scattered Clouds
6:53 PM 35.1 °F 30.1 °F 27.0 °F 72% 29.90 in 10.0 mi WNW 5.8 mph - N/A   Clear
7:53 PM 34.0 °F - 27.0 °F 75% 29.89 in 10.0 mi Calm Calm - N/A   Clear
8:53 PM 33.1 °F - 26.1 °F 75% 29.88 in 10.0 mi Calm Calm - N/A   Clear
9:53 PM 33.1 °F - 26.1 °F 75% 29.88 in 10.0 mi Calm Calm - N/A   Clear
10:53 PM 30.0 °F - 25.0 °F 82% 29.88 in 10.0 mi Calm Calm - N/A   Clear
11:53 PM 30.0 °F 26.5 °F 26.1 °F 85% 29.89 in 10.0 mi West 3.5 mph - N/A   Clear